Tracking 19192 objects as of 21-Jun-2018
HD Live streaming from Space Station
objects crossing your sky now

FENGYUN 1C DEB

Track FENGYUN 1C DEB now!
10-day predictions


NORAD ID: 32209
Int'l Code: 1999-025CVF
Perigee: 855.7 km
Apogee: 1,374.8 km
Inclination: 99.4 °
Period: 107.4 minutes
Semi major axis: 7486 km
RCS: 0.0093 m2 (small)
Launch date: May 10, 1999
Source: People's Republic of China (PRC)
Launch site: Taiyaun Space Center, China (TSC)

Note: This is SATELLITE DEBRIS
aabbcc
Your satellite tracking list
Your tracking list is empty




NASA's NSSDC Master Catalog

Two Line Element Set (TLE):
1 32209U 99025CVF 18172.22964793  .00000387  00000-0  55244-3 0  9993
2 32209  99.4343 267.0019 0346733 319.3567  38.2147 13.40320277534179
Source of the keplerian elements: AFSPC